sat.trackr.live / text

‹ back to catalog

STARLINK-4591

NORAD 53607 · 2022-104V

PAYLOAD ACTIVE UNKNOWN

§ Identity

Operator
Country
US
Launch date
2022-08-28
Launch site
AFETR
Launch vehicle
Mass (kg)
RCS (m²)

Purposes: comms

External: N2YO · Heavens-Above · Gunter

§ Orbital elements

Epoch: 2026-09-20T04:36:24.841152Z

Period
93.85 min
Inclination
53.1610°
Eccentricity
0.0001296
Mean motion
15.34387783 rev/d
Perigee alt
461.9 km
Apogee alt
463.6 km
Semi-major
6,840.9 km
B*
4.0843e-5
RAAN
68.7946°
Arg perigee
84.0476°
Mean anomaly
276.0674°
Rev number
22,528

§ Raw data

STARLINK-45911 53607U 22104V   26263.19195418  .00001003  00000+0  40843-4 0  99932 53607  53.1610  68.7946 0001296  84.0476 276.0674 15.34387783225286

JSON: /api/v1/satellites/53607 · /tle

For live sub-satellite position, see the globe view (requires WebGL).

§ Visibility from observer

Set your observer location to see the next 7 days of passes ≥ 10°. The values pass through the URL so the page stays shareable.

No JS? Fill the form by hand. The geolocation button needs JavaScript.